Weather in Mayzas

Russia / Kemerovo Oblast     53°37′15″N   88°12′32″E
temp.,
°C
wind,
m/s
gust,
m/s
humid.,
%
clouds,
%
prec.,
mm/h
press.,
hPa
HPBL,
m
6 may, thu
thu601:00+6ese1169100 0.0 101610
04:00+6ese2171100 0.0 101412
07:00+8se1169100 0.0 101327
10:00+14se126969 0.0 1010286
13:00+19se12545 0.0 1009720
16:00+20s23460 0.0 10081015
19:00+17sse1167100 0.0 100711
22:00+12sse2279100 0.0 100814
7 may, fri
fri701:00+11sse228630 0.0 100816
04:00+10sse228789 0.0 100721
07:00+12se2383100 0.0 100761
10:00+16ssw21272100 0.0 1007498
13:00+14sw31078100 0.1 1009570
16:00+12wsw51194100 1.4 1011763
19:00+11sw41190100 2.2 1013757
22:00+9ssw3993100 0.4 1015246
8 may, sat
sat801:00+8wsw389368 0.8 1018273
04:00+5ssw23955 0.0 102046
07:00+5ssw12885 0.0 1022103
10:00+10wsw35631 0.0 10211122
13:00+14w464146 0.0 10202042
16:00+15w464069 0.0 10182116
19:00+13w3856100 0.0 1019414
22:00+10sw3106575 0.0 1019296
9 may, sun
sun901:00+10sw41264100 0.0 1019482
04:00+9sw3106898 0.1 1019447
07:00+9sw2869100 0.1 1020353
10:00+11w356885 0.0 1020908
13:00+14nw475358 0.4 10191701
16:00+15nw464057 0.0 10181581
19:00+13nnw245110 0.0 1019598
22:00+6e117116 0.0 102010
10 may, mon
mon1001:00+5e117638 0.0 102012
04:00+3ese228854 0.0 101920
07:00+6e227537 0.0 1018127
10:00+12ese344614 0.0 1015792
13:00+16ese2339100 0.0 10131379
16:00+16ese3337100 0.0 10111527
19:00+14se3650100 0.0 1010402
22:00+8ese2261100 0.0 100927